Indianapolis, IN (46277)

10:59 PM EST on March 05, 2015 (GMT -0500)
North Fountain Square | Change Station
CLOSE
Current Station
Personal Weather Station
Location: Indianapolis, IN
Elevation: 738 ft
Nearby Weather Stations

Elev 738 ft 39.76 °N, 86.14 °W | Updated 3 seconds ago

Partly Cloudy
Partly Cloudy
13.1 °F
Feels Like 13 °F
N
1.8
Wind Variable Wind from West
Gusts 4.9 mph

Today
High -- | Low -- °F
--% Chance of Precip.
Yesterday
High -- | Low -- °F
Precip. -- in
7:12 AM 6:40 PM
Full, 100% visible
Pressure 30.59 in
Visibility 10.0 miles
Clouds Clear
Windchill 13 °F
Dew Point -4 °F
Humidity 46%
Rainfall in
Snow Depth Not available.
UV 0 out of 12
Pollen 1.10 out of 12
Air Quality Not available.
Flu Activity Not available.
METAR KIND 060354Z 31006KT 10SM CLR M13/M18 A3054 RMK AO2 SLP358 T11281178

More Conditions Fewer Conditions

Pressure 30.59 in
Visibility 10.0 miles
Clouds Clear
Windchill 13 °F
Dew Point -4 °F
Humidity 46%
Rainfall in
Snow Depth Not available.
UV 0 out of 12
Pollen 1.10 out of 12
Air Quality Not available.
Flu Activity Not available.
METAR KIND 060354Z 31006KT 10SM CLR M13/M18 A3054 RMK AO2 SLP358 T11281178

More Conditions Fewer Conditions

10-Day Weather Forecast

Almanac

Astronomy

Mar. 05, 2015 Rise Set
Actual Time
Civil Twilight
Nautical Twilight
Astronomical Twilight
Moon
Length of Visible Light
Length of Day
Tomorrow will be .
, % of the Moon is Illuminated

Today's Extremes

State Highs State Lows

Community

WunderPhotos

Upload Photos

1,803,171 photos uploaded!

WunderBlogs® & News

Nearby

Air Quality

  Air Quality AQ Index Pollutant
Not available.

Snow Depth

Station Depth Elevation

Earthquake Activity

City Distance Mag. Time & Date
Minimum magnitude displayed is 2.5.

Coastal Water Temperatures

Place Temperature

Nearby Weather Stations